Location: Montreal
(45.5000°N, 73.5833°W)
Time: 04:15:40
(UTC-05:00)

OTV 5 (USA 277) - Pass Details

Date: 13 October 2017
Orbit: 404 x 417 km, 43.0° (Epoch: 07 September)

Event Time Altitude Azimuth Distance (km) Brightness Sun altitude
Rises 20:24:29 0° 261° (W) 2,354 ? -23.9°
Reaches altitude 10° 20:26:37 10° 257° (WSW) 1,490 ? -24.3°
Enters shadow 20:28:29 29° 245° (WSW) 795 ? -24.6°
